GW3646 Weather Reports


Display with metric or nautical units.
time (UTC)temp
F
wind
direction
speed
MPH
gust
MPH
rain 1hr
in
rain 24hr
in
rain mn
in
humidity
%
barometer
mb
20260905143508 86 256 1.0 4.0 0.00 0.00 0.00 62 1014.5
20260905143023 85 329 1.0 6.0 0.00 0.00 0.00 63 1014.5
20260905142508 85 255 1.0 6.0 0.00 0.00 0.00 64 1014.4
20260905142008 84 256 1.0 6.0 0.00 0.00 0.00 64 1014.4
20260905141533 83 173 0.0 3.0 0.00 0.00 0.00 65 1014.4
20260905141012 83 254 0.0 4.0 0.00 0.00 0.00 67 1014.3
20260905140503 82 162 0.0 4.0 0.00 0.00 0.00 68 1014.3
20260905140006 81 271 1.0 4.0 0.00 0.00 0.00 70 1014.3
20260905135503 80 207 0.0 3.0 0.00 0.00 0.00 72 1014.3
20260905135002 79 271 0.0 2.0 0.00 0.00 0.00 73 1014.3
20260905134508 79 291 0.0 3.0 0.00 0.00 0.00 73 1014.3
20260905134004 78 185 0.0 3.0 0.00 0.00 0.00 75 1014.3
20260905133505 78 193 0.0 3.0 0.00 0.00 0.00 76 1014.3
20260905133014 77 168 0.0 2.0 0.00 0.00 0.00 77 1014.3
20260905132505 76 281 0.0 5.0 0.00 0.00 0.00 79 1014.3
20260905132011 75 198 0.0 5.0 0.00 0.00 0.00 80 1014.3
20260905131521 75 244 0.0 0.0 0.00 0.00 0.00 81 1014.3
20260905131011 74 244 0.0 0.0 0.00 0.00 0.00 82 1014.2
20260905130510 74 244 0.0 0.0 0.00 0.00 0.00 82 1014.1
20260905130033 73 244 0.0 0.0 0.00 0.00 0.00 83 1014.0
20260905125514 73 244 0.0 0.0 0.00 0.00 0.00 83 1014.0
20260905125014 73 244 0.0 0.0 0.00 0.00 0.00 83 1014.0
20260905124509 72 244 0.0 0.0 0.00 0.00 0.00 84 1014.0
20260905124006 72 244 0.0 0.0 0.00 0.00 0.00 84 1014.0
20260905123504 72 244 0.0 0.0 0.00 0.00 0.00 85 1014.0
20260905123019 72 244 0.0 0.0 0.00 0.00 0.00 85 1014.0
20260905122510 72 244 0.0 0.0 0.00 0.00 0.00 85 1014.0
20260905122006 72 244 0.0 0.0 0.00 0.00 0.00 85 1014.0
20260905121525 72 244 0.0 0.0 0.00 0.00 0.00 85 1013.8
20260905121010 72 244 0.0 0.0 0.00 0.00 0.00 85 1013.8
20260905120512 72 244 0.0 0.0 0.00 0.00 0.00 85 1013.8
20260905120028 72 244 0.0 0.0 0.00 0.00 0.00 84 1013.7
20260905115511 72 244 0.0 0.0 0.00 0.00 0.00 84 1013.6
20260905115011 72 244 0.0 0.0 0.00 0.00 0.00 84 1013.6
20260905114527 72 244 0.0 0.0 0.00 0.00 0.00 84 1013.6
20260905114015 72 244 0.0 0.0 0.00 0.00 0.00 84 1013.5
20260905113515 72 244 0.0 0.0 0.00 0.00 0.00 83 1013.5
20260905113010 72 244 0.0 0.0 0.00 0.00 0.00 83 1013.5
20260905112506 72 244 0.0 0.0 0.00 0.00 0.00 83 1013.6
20260905112010 72 244 0.0 0.0 0.00 0.00 0.00 83 1013.5
20260905111517 72 244 0.0 0.0 0.00 0.00 0.00 82 1013.5
20260905111007 73 244 0.0 0.0 0.00 0.00 0.00 82 1013.6
20260905110511 73 244 0.0 0.0 0.00 0.00 0.00 82 1013.6
20260905110023 73 244 0.0 0.0 0.00 0.00 0.00 82 1013.6
20260905105511 73 244 0.0 0.0 0.00 0.00 0.00 82 1013.5
20260905105014 73 244 0.0 0.0 0.00 0.00 0.00 82 1013.6
20260905104533 73 244 0.0 0.0 0.00 0.00 0.00 82 1013.6
20260905104015 73 244 0.0 0.0 0.00 0.00 0.00 82 1013.6
20260905103517 73 244 0.0 0.0 0.00 0.00 0.00 82 1013.6
20260905103036 73 244 0.0 0.0 0.00 0.00 0.00 81 1013.6
20260905102515 74 244 0.0 0.0 0.00 0.00 0.00 81 1013.7
20260905102016 74 244 0.0 0.0 0.00 0.00 0.00 81 1013.7
20260905101513 74 244 0.0 0.0 0.00 0.00 0.00 81 1013.6
20260905101007 74 244 0.0 0.0 0.00 0.00 0.00 81 1013.7
20260905100506 74 244 0.0 0.0 0.00 0.00 0.00 80 1013.8
20260905100019 74 244 0.0 0.0 0.00 0.00 0.00 80 1013.8
20260905095508 74 244 0.0 0.0 0.00 0.00 0.00 80 1013.8
20260905095013 74 244 0.0 0.0 0.00 0.00 0.00 80 1013.9
20260905094524 74 244 0.0 0.0 0.00 0.00 0.00 80 1013.9
20260905094013 74 244 0.0 0.0 0.00 0.00 0.00 80 1013.9
20260905093512 75 244 0.0 0.0 0.00 0.00 0.00 79 1013.9
20260905093029 75 244 0.0 0.0 0.00 0.00 0.00 79 1013.9
20260905092514 75 244 0.0 0.0 0.00 0.00 0.00 79 1013.8
20260905092015 75 244 0.0 0.0 0.00 0.00 0.00 79 1014.0
20260905091529 75 244 0.0 0.0 0.00 0.00 0.00 78 1013.9
20260905091017 75 244 0.0 0.0 0.00 0.00 0.00 78 1013.9
20260905090518 75 244 0.0 0.0 0.00 0.00 0.00 78 1013.9
20260905090016 76 244 0.0 0.0 0.00 0.00 0.00 77 1013.8
20260905085507 76 244 0.0 0.0 0.00 0.00 0.00 77 1013.8
20260905085010 76 244 0.0 0.0 0.00 0.00 0.00 76 1013.9
20260905084520 76 244 0.0 0.0 0.00 0.00 0.00 76 1013.8
20260905084012 76 244 0.0 0.0 0.00 0.00 0.00 75 1013.8
20260905083514 77 244 0.0 0.0 0.00 0.00 0.00 75 1013.8
20260905083028 77 244 0.0 0.0 0.00 0.00 0.00 74 1013.7
20260905082514 77 244 0.0 0.0 0.00 0.00 0.00 74 1013.8
20260905082014 77 244 0.0 0.0 0.00 0.00 0.00 74 1013.8
20260905081530 77 244 0.0 0.0 0.00 0.00 0.00 73 1013.8
20260905081016 78 244 0.0 0.0 0.00 0.00 0.00 73 1013.8
20260905080515 78 244 0.0 0.0 0.00 0.00 0.00 72 1013.8
20260905080039 78 244 0.0 0.0 0.00 0.00 0.00 72 1013.8
20260905075516 78 244 0.0 0.0 0.00 0.00 0.00 72 1013.9
20260905075016 79 244 0.0 0.0 0.00 0.00 0.00 71 1013.8
20260905074520 79 244 0.0 0.0 0.00 0.00 0.00 71 1013.7
20260905074006 79 244 0.0 0.0 0.00 0.00 0.00 70 1013.7
20260905073510 79 244 0.0 0.0 0.00 0.00 0.00 70 1013.6
20260905073033 79 244 0.0 1.0 0.00 0.00 0.00 70 1013.7
20260905072510 79 244 0.0 1.0 0.00 0.00 0.00 69 1013.6
20260905072011 80 244 0.0 0.0 0.00 0.00 0.00 69 1013.6
20260905071529 80 244 0.0 1.0 0.00 0.00 0.00 69 1013.6
20260905071014 80 244 0.0 1.0 0.00 0.00 0.00 69 1013.6
20260905070516 80 244 0.0 1.0 0.00 0.00 0.00 68 1013.6
20260905070059 80 244 0.0 2.0 0.00 0.00 0.00 68 1013.5
20260905065515 80 244 0.0 2.0 0.00 0.00 0.00 68 1013.6
20260905065019 80 244 0.0 1.0 0.00 0.00 0.00 68 1013.5
20260905064531 80 244 0.0 0.0 0.00 0.00 0.00 68 1013.5
20260905064015 80 244 0.0 0.0 0.00 0.00 0.00 67 1013.3
20260905063516 80 311 0.0 0.0 0.00 0.00 0.00 68 1013.4
20260905063020 80 311 0.0 2.0 0.00 0.00 0.00 68 1013.4
20260905062510 80 311 0.0 2.0 0.00 0.00 0.00 68 1013.3
20260905062011 80 186 0.0 1.0 0.00 0.00 0.00 68 1013.3
20260905061504 80 186 0.0 1.0 0.00 0.00 0.00 68 1013.3
20260905061003 80 186 0.0 0.0 0.00 0.00 0.00 68 1013.3
20260905060504 81 186 0.0 0.0 0.00 0.00 0.00 67 1013.2
20260905060004 81 186 0.0 1.0 0.00 0.00 0.00 68 1013.2
20260905055503 81 186 0.0 3.0 0.00 0.00 0.00 68 1013.1
20260905055004 81 186 0.0 3.0 0.00 0.00 0.00 67 1013.2
20260905054529 81 186 0.0 3.0 0.00 0.00 0.00 67 1013.1
20260905054003 81 186 0.0 3.0 0.00 0.00 0.00 67 1013.1
20260905053503 81 186 0.0 0.0 0.00 0.00 0.00 67 1013.1
20260905053013 81 186 0.0 0.0 0.00 0.00 0.00 68 1013.2
20260905052507 81 186 0.0 0.0 0.00 0.00 0.00 68 1013.2
20260905052006 81 186 0.0 0.0 0.00 0.00 0.00 68 1013.2
20260905051518 81 186 0.0 0.0 0.00 0.00 0.00 68 1013.3
20260905051006 81 186 0.0 0.0 0.00 0.00 0.00 68 1013.4
20260905050506 81 186 0.0 0.0 0.00 0.00 0.00 68 1013.4
20260905050003 81 186 0.0 0.0 0.00 0.00 0.00 68 1013.4
20260905045502 81 186 0.0 0.0 0.00 0.00 0.00 68 1013.6
20260905045002 81 186 0.0 0.0 0.00 0.00 0.00 67 1013.6
20260905044507 81 186 0.0 0.0 0.00 0.00 0.00 67 1013.6
20260905044005 81 186 0.0 0.0 0.00 0.00 0.00 67 1013.6
20260905043505 81 186 0.0 0.0 0.00 0.00 0.00 67 1013.6
20260905043012 81 186 0.0 0.0 0.00 0.00 0.00 67 1013.5
20260905042506 81 186 0.0 0.0 0.00 0.00 0.00 67 1013.6
20260905042006 81 186 0.0 0.0 0.00 0.00 0.00 67 1013.5
20260905041514 81 186 0.0 1.0 0.00 0.00 0.00 67 1013.5
20260905041008 81 186 0.0 1.0 0.00 0.00 0.00 67 1013.5
20260905040508 81 186 0.0 1.0 0.00 0.00 0.00 68 1013.5
20260905040021 81 186 0.0 1.0 0.00 0.00 0.00 67 1013.5
20260905035508 81 186 0.0 1.0 0.00 0.00 0.00 68 1013.5
20260905035007 81 186 0.0 0.0 0.00 0.00 0.00 67 1013.6
20260905034520 81 186 0.0 0.0 0.00 0.00 0.00 68 1013.7
20260905034001 81 186 0.0 0.0 0.00 0.00 0.00 68 1013.7
20260905033502 81 186 0.0 0.0 0.00 0.00 0.00 68 1013.7
20260905033016 81 186 0.0 0.0 0.00 0.00 0.00 68 1013.7
20260905032503 81 186 0.0 0.0 0.00 0.00 0.00 68 1013.7
20260905032006 81 186 0.0 0.0 0.00 0.00 0.00 68 1013.6
20260905031516 81 186 0.0 0.0 0.00 0.00 0.00 69 1013.6
20260905031008 81 186 0.0 0.0 0.00 0.00 0.00 69 1013.6
20260905030507 81 186 0.0 0.0 0.00 0.00 0.00 69 1013.5
20260905030018 81 186 0.0 0.0 0.00 0.00 0.00 69 1013.4
20260905025508 81 186 0.0 0.0 0.00 0.00 0.00 69 1013.4
20260905025013 81 186 0.0 0.0 0.00 0.00 0.00 69 1013.4
20260905024518 81 186 0.0 0.0 0.00 0.00 0.00 68 1013.2
20260905024009 82 186 0.0 0.0 0.00 0.00 0.00 68 1013.2
20260905023507 82 186 0.0 0.0 0.00 0.00 0.00 67 1013.1
20260905023028 82 186 0.0 0.0 0.00 0.00 0.00 67 1013.1
20260905022506 82 186 0.0 0.0 0.00 0.00 0.00 67 1012.9
20260905022003 83 186 0.0 0.0 0.00 0.00 0.00 67 1012.8
20260905021510 83 186 0.0 0.0 0.00 0.00 0.00 66 1012.7
20260905021006 83 186 0.0 0.0 0.00 0.00 0.00 65 1012.5
20260905020507 84 186 0.0 0.0 0.00 0.00 0.00 65 1012.3
20260905020018 84 186 0.0 0.0 0.00 0.00 0.00 63 1012.2
20260905015508 85 186 0.0 0.0 0.00 0.00 0.00 63 1012.2
20260905015008 85 186 0.0 0.0 0.00 0.00 0.00 64 1012.2
20260905014520 86 186 0.0 0.0 0.00 0.00 0.00 63 1012.1
20260905014008 86 186 0.0 0.0 0.00 0.00 0.00 62 1012.1
20260905013510 87 186 0.0 0.0 0.00 0.00 0.00 61 1011.9
20260905013025 87 186 0.0 0.0 0.00 0.00 0.00 60 1011.8
20260905012508 88 186 0.0 0.0 0.00 0.00 0.00 58 1011.8
20260905012010 88 186 0.0 0.0 0.00 0.00 0.00 57 1011.9
20260905011525 89 186 0.0 0.0 0.00 0.00 0.00 54 1011.8
20260905011007 89 186 0.0 0.0 0.00 0.00 0.00 54 1011.8
20260905010505 90 186 0.0 1.0 0.00 0.00 0.00 53 1011.9
20260905010016 90 186 0.0 1.0 0.00 0.00 0.00 52 1011.8
20260905005507 91 186 0.0 1.0 0.00 0.00 0.00 51 1011.8
20260905005008 91 186 0.0 2.0 0.00 0.00 0.00 50 1011.8
20260905004521 92 186 0.0 3.0 0.00 0.00 0.00 50 1011.7
20260905004012 92 186 0.0 3.0 0.00 0.00 0.00 49 1011.7
20260905003512 92 179 0.0 3.0 0.00 0.00 0.00 49 1011.8
20260905003024 93 201 0.0 3.0 0.00 0.00 0.00 48 1011.7
20260905002510 93 191 0.0 3.0 0.00 0.00 0.00 48 1011.7
20260905002008 93 5 0.0 3.0 0.00 0.00 0.00 48 1011.7
20260905001527 94 177 0.0 3.0 0.00 0.00 0.00 47 1011.7
20260905001011 94 186 0.0 3.0 0.00 0.00 0.00 47 1011.7
20260905000512 94 279 1.0 3.0 0.00 0.00 0.00 46 1011.7
20260905000025 94 221 0.0 6.0 0.00 0.00 0.00 46 1011.7
20260904235505 95 279 1.0 6.0 0.00 0.00 0.00 46 1011.7
20260904235007 95 277 0.0 8.0 0.00 0.00 0.00 46 1011.7
20260904234528 95 123 2.0 8.0 0.00 0.00 0.00 46 1011.6
20260904234007 95 190 1.0 8.0 0.00 0.00 0.00 46 1011.6
20260904233509 96 227 1.0 8.0 0.00 0.00 0.00 44 1011.6
20260904233020 96 272 1.0 7.0 0.00 0.00 0.00 44 1011.6
20260904232512 97 153 2.0 7.0 0.00 0.00 0.00 44 1011.6
20260904232010 97 148 1.0 9.0 0.00 0.00 0.00 43 1011.5
20260904231524 97 228 1.0 9.0 0.00 0.00 0.00 44 1011.6
20260904231013 97 185 2.0 11.0 0.00 0.00 0.00 44 1011.6
20260904230511 97 288 3.0 11.0 0.00 0.00 0.00 43 1011.6
20260904230026 97 267 5.0 10.0 0.00 0.00 0.00 43 1011.5
20260904225511 97 248 2.0 11.0 0.00 0.00 0.00 44 1011.6
20260904225016 98 268 1.0 11.0 0.00 0.00 0.00 43 1011.6
20260904224531 98 190 2.0 10.0 0.00 0.00 0.00 42 1011.6
20260904224008 98 209 4.0 10.0 0.00 0.00 0.00 43 1011.6
20260904223507 98 273 1.0 8.0 0.00 0.00 0.00 43 1011.5
20260904223016 98 344 2.0 8.0 0.00 0.00 0.00 43 1011.5
20260904222509 98 200 1.0 8.0 0.00 0.00 0.00 43 1011.6
20260904222008 98 190 2.0 6.0 0.00 0.00 0.00 42 1011.6
20260904221532 98 282 0.0 8.0 0.00 0.00 0.00 43 1011.5
20260904221012 98 280 3.0 8.0 0.00 0.00 0.00 43 1011.6
20260904220515 98 230 2.0 8.0 0.00 0.00 0.00 43 1011.6
20260904220029 98 252 2.0 11.0 0.00 0.00 0.00 44 1011.5
20260904215512 99 261 3.0 11.0 0.00 0.00 0.00 43 1011.6
20260904215012 99 302 1.0 8.0 0.00 0.00 0.00 43 1011.7
20260904214524 98 271 2.0 8.0 0.00 0.00 0.00 44 1011.7
20260904214010 98 304 3.0 8.0 0.00 0.00 0.00 43 1011.7
20260904213511 98 239 1.0 7.0 0.00 0.00 0.00 44 1011.7
20260904213031 98 268 2.0 7.0 0.00 0.00 0.00 43 1011.8
20260904212509 98 279 1.0 8.0 0.00 0.00 0.00 43 1011.8
20260904212009 98 143 4.0 8.0 0.00 0.00 0.00 42 1011.8
20260904211518 99 246 3.0 7.0 0.00 0.00 0.00 43 1011.9
20260904211010 99 192 3.0 9.0 0.00 0.00 0.00 43 1011.9
20260904210510 98 237 2.0 9.0 0.00 0.00 0.00 42 1012.0
20260904210028 98 81 4.0 9.0 0.00 0.00 0.00 44 1012.0
20260904205515 98 135 2.0 8.0 0.00 0.00 0.00 44 1012.1
20260904205015 98 216 3.0 8.0 0.00 0.00 0.00 44 1012.1
20260904204530 98 53 2.0 11.0 0.00 0.00 0.00 43 1012.1
20260904204016 98 277 1.0 11.0 0.00 0.00 0.00 44 1012.2
20260904203512 98 290 2.0 9.0 0.00 0.00 0.00 44 1012.3
20260904203037 98 246 4.0 9.0 0.00 0.00 0.00 44 1012.4
20260904202512 98 281 2.0 9.0 0.00 0.00 0.00 43 1012.4
20260904202012 99 248 4.0 9.0 0.00 0.00 0.00 43 1012.4
20260904201530 98 282 2.0 9.0 0.00 0.00 0.00 45 1012.4
20260904201013 98 277 2.0 8.0 0.00 0.00 0.00 45 1012.4
20260904200511 98 258 2.0 9.0 0.00 0.00 0.00 45 1012.4
20260904200022 98 275 2.0 9.0 0.00 0.00 0.00 45 1012.3
20260904195513 98 254 4.0 11.0 0.00 0.00 0.00 45 1012.5
20260904195014 97 182 2.0 11.0 0.00 0.00 0.00 46 1012.4
20260904194531 97 134 4.0 11.0 0.00 0.00 0.00 45 1012.5
20260904194015 97 267 3.0 9.0 0.00 0.00 0.00 47 1012.5
20260904193513 97 261 3.0 8.0 0.00 0.00 0.00 47 1012.6
20260904193031 96 200 2.0 10.0 0.00 0.00 0.00 47 1012.6
20260904192513 96 194 3.0 11.0 0.00 0.00 0.00 48 1012.6
20260904192020 96 194 3.0 11.0 0.00 0.00 0.00 49 1012.7
20260904191530 96 259 5.0 11.0 0.00 0.00 0.00 46 1012.6
20260904191014 96 333 2.0 9.0 0.00 0.00 0.00 48 1012.7
20260904190516 96 295 1.0 10.0 0.00 0.00 0.00 48 1012.9
20260904190031 96 228 2.0 10.0 0.00 0.00 0.00 48 1012.9
20260904185515 96 167 2.0 10.0 0.00 0.00 0.00 48 1013.1
20260904185009 95 294 1.0 9.0 0.00 0.00 0.00 50 1013.1
20260904184524 95 253 2.0 11.0 0.00 0.00 0.00 50 1013.2
20260904184013 94 141 5.0 12.0 0.00 0.00 0.00 49 1013.2
20260904183514 94 257 4.0 12.0 0.00 0.00 0.00 50 1013.2
20260904183031 94 242 2.0 10.0 0.00 0.00 0.00 51 1013.3
20260904182517 94 175 3.0 11.0 0.00 0.00 0.00 51 1013.3
20260904182021 94 197 3.0 11.0 0.00 0.00 0.00 52 1013.3
20260904181530 93 260 3.0 8.0 0.00 0.00 0.00 52 1013.4
20260904181014 93 257 3.0 8.0 0.00 0.00 0.00 53 1013.6
20260904180504 93 207 2.0 10.0 0.00 0.00 0.00 52 1013.6
20260904180015 93 253 5.0 10.0 0.00 0.00 0.00 53 1013.6
20260904175506 93 220 3.0 10.0 0.00 0.00 0.00 53 1013.7
20260904175009 93 302 4.0 10.0 0.00 0.00 0.00 53 1013.7
20260904174518 93 215 2.0 9.0 0.00 0.00 0.00 54 1013.7
20260904174012 92 275 3.0 9.0 0.00 0.00 0.00 54 1013.9
20260904173511 92 155 2.0 10.0 0.00 0.00 0.00 54 1013.9
20260904173033 92 237 3.0 10.0 0.00 0.00 0.00 56 1014.0
20260904172515 91 26 2.0 9.0 0.00 0.00 0.00 55 1014.0
20260904172015 91 273 3.0 10.0 0.00 0.00 0.00 55 1014.1
20260904171533 91 265 5.0 10.0 0.00 0.00 0.00 55 1014.1
20260904171014 91 118 2.0 9.0 0.00 0.00 0.00 57 1014.1
20260904170514 90 267 1.0 11.0 0.00 0.00 0.00 56 1014.1
20260904170032 90 180 3.0 11.0 0.00 0.00 0.00 56 1014.3
20260904165516 90 290 3.0 10.0 0.00 0.00 0.00 57 1014.2
20260904165011 90 277 4.0 9.0 0.00 0.00 0.00 57 1014.3
20260904164515 89 225 2.0 7.0 0.00 0.00 0.00 58 1014.3
20260904164008 89 275 3.0 7.0 0.00 0.00 0.00 58 1014.3
20260904163511 89 188 2.0 7.0 0.00 0.00 0.00 58 1014.3
20260904163026 89 271 3.0 6.0 0.00 0.00 0.00 59 1014.3
20260904162513 88 210 1.0 6.0 0.00 0.00 0.00 60 1014.4
20260904162013 88 277 2.0 9.0 0.00 0.00 0.00 60 1014.4
20260904161527 88 283 1.0 9.0 0.00 0.00 0.00 61 1014.3
20260904161014 88 267 1.0 5.0 0.00 0.00 0.00 61 1014.3
20260904160516 87 269 1.0 5.0 0.00 0.00 0.00 62 1014.2
20260904160044 87 267 1.0 4.0 0.00 0.00 0.00 62 1014.2
20260904155517 86 281 2.0 7.0 0.00 0.00 0.00 64 1014.2
20260904155016 86 231 2.0 7.0 0.00 0.00 0.00 63 1014.2
20260904154537 86 217 1.0 6.0 0.00 0.00 0.00 63 1014.2
20260904154014 85 257 2.0 6.0 0.00 0.00 0.00 64 1014.2
20260904153508 85 198 2.0 7.0 0.00 0.00 0.00 65 1014.2
20260904153021 85 304 0.0 8.0 0.00 0.00 0.00 66 1014.3
20260904152511 84 275 2.0 8.0 0.00 0.00 0.00 65 1014.3
20260904152012 84 257 3.0 8.0 0.00 0.00 0.00 66 1014.4
20260904151528 84 263 1.0 6.0 0.00 0.00 0.00 67 1014.3
20260904151004 83 205 1.0 6.0 0.00 0.00 0.00 67 1014.5
20260904150506 83 279 1.0 6.0 0.00 0.00 0.00 68 1014.5
20260904150013 83 250 1.0 7.0 0.00 0.00 0.00 68 1014.5
20260904145504 82 286 1.0 9.0 0.00 0.00 0.00 69 1014.5
20260904145004 82 282 3.0 9.0 0.00 0.00 0.00 69 1014.4
20260904144510 82 240 1.0 9.0 0.00 0.00 0.00 70 1014.4
20260904144006 81 243 3.0 9.0 0.00 0.00 0.00 70 1014.3